When you browse on this site, cookies collect data to enhance your experience and personalize the content and advertising you see.
Visit our Privacy Policy to learn more. By continuing to use the site, you agree to this use of cookies and data.
EN

Hourly Weather Abaliget

Today, 10 July, Friday

Time Temperature Precipitation Wind Pressure Humidity
00:00 +19°C° 0 mm 2 mps 746 mmHg 79%
01:00 +18°C° 0 mm 2 mps 746 mmHg 82%
02:00 +18°C° 0 mm 2 mps 746 mmHg 82%
03:00 +18°C° 0 mm 2 mps 746 mmHg 83%
04:00 +17°C° 0 mm 2 mps 746 mmHg 83%
05:00 +19°C° 0 mm 2 mps 746 mmHg 77%
06:00 +21°C° 0 mm 2 mps 746 mmHg 72%
07:00 +22°C° 0 mm 3 mps 746 mmHg 66%
08:00 +26°C° 0 mm 3 mps 746 mmHg 59%
09:00 +28°C° 0 mm 3 mps 746 mmHg 53%
10:00 +30°C° 0 mm 4 mps 746 mmHg 47%
11:00 +32°C° 0 mm 4 mps 746 mmHg 45%
12:00 +33°C° 0 mm 4 mps 746 mmHg 42%
13:00 +34°C° 0 mm 4 mps 745 mmHg 40%
14:00 +33°C° 0 mm 4 mps 745 mmHg 41%
15:00 +33°C° 0 mm 4 mps 745 mmHg 42%
16:00 +33°C° 0 mm 4 mps 744 mmHg 43%
17:00 +30°C° 0 mm 4 mps 744 mmHg 51%
18:00 +28°C° 0 mm 4 mps 744 mmHg 59%
19:00 +27°C° 0 mm 3 mps 744 mmHg 67%
20:00 +25°C° 0 mm 3 mps 744 mmHg 68%
21:00 +24°C° 0 mm 3 mps 744 mmHg 69%
22:00 +22°C° 0 mm 3 mps 744 mmHg 71%
23:00 +21°C° 0 mm 2 mps 744 mmHg 73%

Tomorrow, 11 July, Saturday

Time Temperature Precipitation Wind Pressure Humidity
00:00 +21°C° 0 mm 2 mps 744 mmHg 75%
01:00 +20°C° 0 mm 2 mps 744 mmHg 77%
02:00 +20°C° 0 mm 2 mps 744 mmHg 80%
03:00 +20°C° 0 mm 1 mps 744 mmHg 84%
04:00 +19°C° 0 mm 1 mps 744 mmHg 87%
05:00 +21°C° 0 mm 1 mps 744 mmHg 81%
06:00 +23°C° 0 mm 1 mps 744 mmHg 75%
07:00 +24°C° 0 mm 1 mps 745 mmHg 68%
08:00 +26°C° 0 mm 1 mps 745 mmHg 63%
09:00 +28°C° 0 mm 1 mps 745 mmHg 57%
10:00 +30°C° 0 mm 1 mps 745 mmHg 52%
11:00 +31°C° 0 mm 1 mps 745 mmHg 48%
12:00 +32°C° 0 mm 2 mps 745 mmHg 43%
13:00 +34°C° 0 mm 2 mps 744 mmHg 39%
14:00 +30°C° 0.2 mm 4 mps 745 mmHg 50%
15:00 +28°C° 0.2 mm 7 mps 745 mmHg 61%
16:00 +24°C° 0.2 mm 9 mps 745 mmHg 71%
17:00 +22°C° 0.5 mm 8 mps 745 mmHg 75%
18:00 +20°C° 0.5 mm 7 mps 745 mmHg 79%
19:00 +17°C° 0.5 mm 6 mps 746 mmHg 83%
20:00 +16°C° 0.9 mm 6 mps 746 mmHg 85%
21:00 +15°C° 0.9 mm 5 mps 747 mmHg 87%
22:00 +15°C° 0.9 mm 5 mps 748 mmHg 89%
23:00 +15°C° 0.3 mm 5 mps 748 mmHg 86%

Day after tomorrow, 12 July, Sunday

Time Temperature Precipitation Wind Pressure Humidity
00:00 +15°C° 0.3 mm 5 mps 748 mmHg 84%
01:00 +15°C° 0.3 mm 5 mps 749 mmHg 81%
02:00 +15°C° 0 mm 5 mps 749 mmHg 77%
03:00 +15°C° 0 mm 5 mps 749 mmHg 73%
04:00 +15°C° 0 mm 5 mps 749 mmHg 69%
05:00 +15°C° 0 mm 5 mps 750 mmHg 66%
06:00 +16°C° 0 mm 5 mps 750 mmHg 63%
07:00 +16°C° 0 mm 5 mps 750 mmHg 60%
08:00 +19°C° 0 mm 5 mps 750 mmHg 55%
09:00 +20°C° 0 mm 5 mps 751 mmHg 50%
10:00 +22°C° 0 mm 5 mps 751 mmHg 44%
11:00 +22°C° 0 mm 5 mps 751 mmHg 43%
12:00 +23°C° 0 mm 5 mps 751 mmHg 41%
13:00 +25°C° 0 mm 5 mps 751 mmHg 39%
14:00 +25°C° 0 mm 5 mps 751 mmHg 40%
15:00 +25°C° 0 mm 4 mps 750 mmHg 41%
16:00 +25°C° 0 mm 4 mps 750 mmHg 42%
17:00 +22°C° 0 mm 3 mps 750 mmHg 50%
18:00 +21°C° 0 mm 3 mps 750 mmHg 58%
19:00 +19°C° 0 mm 2 mps 750 mmHg 66%
20:00 +19°C° 0 mm 1 mps 751 mmHg 72%
21:00 +16°C° 0 mm 1 mps 751 mmHg 78%
22:00 +15°C° 0 mm 1 mps 751 mmHg 84%
23:00 +14°C° 0 mm 1 mps 751 mmHg 85%

13 July, Monday

Time Temperature Precipitation Wind Pressure Humidity
00:00 +13°C° 0 mm 0 mps 751 mmHg 86%
01:00 +13°C° 0 mm 0 mps 751 mmHg 87%
02:00 +12°C° 0 mm 0 mps 751 mmHg 88%
03:00 +12°C° 0 mm 0 mps 751 mmHg 88%
04:00 +11°C° 0 mm 0 mps 751 mmHg 89%
05:00 +13°C° 0 mm 0 mps 751 mmHg 82%
06:00 +15°C° 0 mm 0 mps 751 mmHg 76%
07:00 +17°C° 0 mm 0 mps 751 mmHg 69%
08:00 +21°C° 0 mm 1 mps 751 mmHg 63%
09:00 +22°C° 0 mm 1 mps 751 mmHg 56%
10:00 +24°C° 0 mm 1 mps 751 mmHg 50%
11:00 +24°C° 0 mm 1 mps 750 mmHg 48%
12:00 +25°C° 0 mm 1 mps 750 mmHg 45%
13:00 +26°C° 0 mm 1 mps 749 mmHg 43%
14:00 +25°C° 0 mm 1 mps 749 mmHg 43%
15:00 +25°C° 0 mm 2 mps 749 mmHg 44%
16:00 +25°C° 0 mm 2 mps 748 mmHg 45%
17:00 +24°C° 0 mm 2 mps 748 mmHg 50%
18:00 +21°C° 0 mm 2 mps 748 mmHg 56%
19:00 +20°C° 0 mm 2 mps 748 mmHg 61%
20:00 +19°C° 0 mm 1 mps 748 mmHg 65%
21:00 +18°C° 0 mm 1 mps 748 mmHg 68%
22:00 +15°C° 0 mm 1 mps 748 mmHg 72%
23:00 +15°C° 0 mm 1 mps 748 mmHg 75%

14 July, Tuesday

Time Temperature Precipitation Wind Pressure Humidity
00:00 +14°C° 0 mm 1 mps 748 mmHg 77%
01:00 +13°C° 0 mm 0 mps 748 mmHg 80%
02:00 +12°C° 0 mm 0 mps 748 mmHg 81%
03:00 +12°C° 0 mm 0 mps 748 mmHg 83%
04:00 +12°C° 0 mm 0 mps 747 mmHg 84%
05:00 +14°C° 0 mm 0 mps 748 mmHg 77%
06:00 +16°C° 0 mm 0 mps 748 mmHg 71%
07:00 +18°C° 0 mm 0 mps 748 mmHg 64%
08:00 +21°C° 0 mm 1 mps 748 mmHg 58%
09:00 +23°C° 0 mm 1 mps 748 mmHg 53%
10:00 +24°C° 0 mm 2 mps 748 mmHg 47%
11:00 +25°C° 0 mm 2 mps 747 mmHg 45%
12:00 +25°C° 0 mm 2 mps 747 mmHg 44%
13:00 +26°C° 0 mm 2 mps 747 mmHg 42%
14:00 +26°C° 0 mm 2 mps 746 mmHg 41%
15:00 +26°C° 0 mm 3 mps 746 mmHg 40%
16:00 +26°C° 0 mm 3 mps 746 mmHg 40%
17:00 +25°C° 0 mm 3 mps 746 mmHg 46%
18:00 +22°C° 0 mm 3 mps 745 mmHg 53%
19:00 +20°C° 0 mm 3 mps 745 mmHg 60%
20:00 +19°C° 0 mm 2 mps 746 mmHg 63%
21:00 +18°C° 0 mm 2 mps 746 mmHg 66%
22:00 +16°C° 0 mm 2 mps 746 mmHg 69%
23:00 +16°C° 0 mm 2 mps 746 mmHg 71%

15 July, Wednesday

Time Temperature Precipitation Wind Pressure Humidity
00:00 +16°C° 0 mm 1 mps 746 mmHg 73%
01:00 +15°C° 0 mm 1 mps 746 mmHg 75%
02:00 +15°C° 0 mm 1 mps 746 mmHg 76%
03:00 +15°C° 0 mm 1 mps 745 mmHg 76%
04:00 +15°C° 0 mm 1 mps 745 mmHg 77%
05:00 +16°C° 0 mm 1 mps 745 mmHg 72%
06:00 +18°C° 0 mm 2 mps 746 mmHg 67%
07:00 +19°C° 0 mm 2 mps 746 mmHg 63%
08:00 +21°C° 0 mm 2 mps 746 mmHg 57%
09:00 +23°C° 0 mm 2 mps 746 mmHg 52%
10:00 +25°C° 0 mm 2 mps 746 mmHg 47%
11:00 +25°C° 0 mm 2 mps 746 mmHg 44%
12:00 +26°C° 0 mm 2 mps 746 mmHg 41%
13:00 +27°C° 0 mm 2 mps 745 mmHg 38%
14:00 +27°C° 0 mm 2 mps 745 mmHg 37%
15:00 +28°C° 0 mm 2 mps 745 mmHg 36%
16:00 +28°C° 0 mm 2 mps 745 mmHg 36%
17:00 +26°C° 0 mm 2 mps 744 mmHg 43%
18:00 +25°C° 0 mm 2 mps 744 mmHg 50%
19:00 +23°C° 0 mm 2 mps 744 mmHg 57%
20:00 +21°C° 0 mm 1 mps 745 mmHg 60%
21:00 +20°C° 0 mm 1 mps 745 mmHg 63%
22:00 +19°C° 0 mm 1 mps 745 mmHg 66%
23:00 +19°C° 0 mm 1 mps 745 mmHg 68%
Show more